PA1CG-7 Weather Reports


time (UTC)temp
C
wind
direction
speed
KPH
gust
KPH
rain 1hr
cm
rain 24hr
cm
rain mn
cm
humidity
%
barometer
mb
20260507103216 16 225 4.8 8.0 0.00 0.00 0.00 60 1016.5
20260507102216 16 248 3.2 11.3 0.00 0.00 0.00 61 1016.5
20260507101216 16 315 3.2 9.7 0.00 0.00 0.00 61 1016.5
20260507100216 16 270 8.0 14.5 0.00 0.00 0.00 61 1016.5
20260507095216 15 270 6.4 12.9 0.00 0.00 0.00 61 1016.4
20260507094216 15 315 1.6 4.8 0.00 0.00 0.00 61 1016.4
20260507093215 15 248 8.0 14.5 0.00 0.00 0.00 60 1016.2
20260507092215 16 315 8.0 16.1 0.00 0.00 0.00 60 1016.2
20260507091216 15 225 4.8 9.7 0.00 0.00 0.00 60 1016.1
20260507090216 15 0.0 1.6 0.00 0.00 0.00 59 1016.1
20260507085216 15 315 3.2 6.4 0.00 0.00 0.00 56 1016.1
20260507084216 15 0 11.3 17.7 0.00 0.00 0.00 58 1016.0
20260507083216 14 315 4.8 6.4 0.00 0.00 0.00 58 1016.1
20260507082215 14 0 4.8 9.7 0.00 0.00 0.00 61 1016.1
20260507081215 13 0 6.4 11.3 0.00 0.00 0.00 61 1016.1
20260507080215 13 293 6.4 8.0 0.00 0.00 0.00 62 1016.0
20260507075215 13 338 4.8 8.0 0.00 0.00 0.00 63 1016.0
20260507074215 13 338 4.8 6.4 0.00 0.00 0.00 66 1015.9
20260507073216 12 0 1.6 6.4 0.00 0.00 0.00 67 1015.8
20260507072216 12 0 4.8 8.0 0.00 0.00 0.00 68 1015.9
20260507071215 12 293 6.4 11.3 0.00 0.00 0.00 69 1015.8
20260507070215 11 315 6.4 9.7 0.00 0.00 0.00 71 1015.8
20260507065216 11 315 6.4 9.7 0.00 0.00 0.00 74 1015.8
20260507064215 11 315 6.4 8.0 0.00 0.00 0.00 77 1015.8
20260507063215 10 0 8.0 11.3 0.00 0.00 0.00 78 1015.8
20260507062215 10 0 6.4 9.7 0.00 0.00 0.00 79 1015.8
20260507061215 10 0 6.4 9.7 0.00 0.00 0.00 80 1015.8
20260507060217 9 315 4.8 8.0 0.00 0.00 0.00 81 1015.7
20260507055218 8 315 3.2 8.0 0.00 0.00 0.00 82 1015.7
20260507054217 8 338 3.2 8.0 0.00 0.00 0.00 83 1015.5
20260507053218 8 0.0 0.0 0.00 0.00 0.00 84 1015.4
20260507052218 7 338 1.6 4.8 0.00 0.00 0.00 85 1015.3
20260507051218 7 338 3.2 6.4 0.00 0.00 0.00 85 1015.3
20260507050217 7 315 1.6 3.2 0.00 0.00 0.00 84 1015.2
20260507045217 7 315 1.6 3.2 0.00 0.00 0.00 84 1015.0
20260507044217 7 0.0 0.0 0.00 0.00 0.00 84 1014.9
20260507043217 7 0.0 0.0 0.00 0.00 0.00 84 1014.9
20260507042217 7 0.0 1.6 0.00 0.00 0.00 84 1014.8
20260507041215 7 315 3.2 3.2 0.00 0.00 0.00 84 1014.8
20260507040217 7 315 1.6 3.2 0.00 0.00 0.00 84 1014.7
20260507035217 7 315 1.6 3.2 0.00 0.00 0.00 84 1014.6
20260507034217 7 315 1.6 3.2 0.00 0.00 0.00 84 1014.6
20260507033217 7 315 1.6 4.8 0.00 0.00 0.00 84 1014.6
20260507032217 7 0.0 1.6 0.00 0.00 0.00 84 1014.5
20260507031217 7 315 1.6 4.8 0.00 0.00 0.00 84 1014.5
20260507030217 7 338 3.2 8.0 0.00 0.00 0.00 84 1014.4
20260507025217 8 315 1.6 4.8 0.00 0.00 0.00 84 1014.4
20260507024217 8 315 3.2 4.8 0.00 0.00 0.00 84 1014.3
20260507023217 8 293 4.8 8.0 0.00 0.00 0.00 83 1014.4
20260507022217 8 315 3.2 4.8 0.00 0.00 0.00 83 1014.3
20260507021217 8 315 4.8 6.4 0.00 0.00 0.00 83 1014.2
20260507020217 8 315 3.2 6.4 0.00 0.00 0.00 83 1014.1
20260507015217 8 315 3.2 4.8 0.00 0.00 0.00 83 1014.1
20260507014217 8 315 6.4 9.7 0.00 0.00 0.00 83 1014.0
20260507013217 8 315 6.4 9.7 0.00 0.00 0.00 83 1014.0
20260507012217 8 338 4.8 6.4 0.00 0.00 0.00 83 1014.0
20260507011217 8 315 1.6 6.4 0.00 0.00 0.00 83 1014.0
20260507010216 8 315 4.8 8.0 0.00 0.00 0.00 82 1013.9
20260507005217 8 315 3.2 8.0 0.00 0.00 0.00 82 1013.9
20260507004217 8 0 4.8 9.7 0.00 0.00 0.00 82 1013.9
20260507003216 8 315 4.8 8.0 0.00 0.00 0.00 82 1013.9
20260507002216 9 293 4.8 8.0 0.00 0.00 0.00 82 1013.8
20260507001217 9 338 3.2 3.2 0.00 0.00 0.00 81 1013.7
20260507000219 9 315 6.4 8.0 0.00 0.00 0.00 81 1013.7
20260506235217 9 338 6.4 9.7 0.00 0.00 0.00 81 1013.7
20260506234216 10 338 4.8 8.0 0.00 0.00 0.00 80 1013.8
20260506233216 10 293 3.2 6.4 0.00 0.00 0.00 79 1013.6
20260506232216 10 315 4.8 8.0 0.00 0.00 0.00 79 1013.6
20260506231216 10 338 9.7 14.5 0.00 0.00 0.00 78 1013.6
20260506230216 10 315 8.0 12.9 0.00 0.00 0.00 77 1013.5
20260506225216 10 293 8.0 14.5 0.00 0.00 0.00 76 1013.5
20260506224216 10 315 8.0 12.9 0.00 0.00 0.00 75 1013.5
20260506223216 10 338 8.0 11.3 0.00 0.00 0.00 75 1013.4
20260506222217 10 0 8.0 11.3 0.00 0.00 0.00 74 1013.4
20260506221216 10 315 4.8 11.3 0.00 0.00 0.00 73 1013.3
20260506220216 11 293 4.8 8.0 0.00 0.00 0.00 72 1013.3
20260506215216 11 315 3.2 4.8 0.00 0.00 0.00 71 1013.2
20260506214216 11 338 4.8 8.0 0.00 0.00 0.00 71 1013.1
20260506213215 11 315 8.0 11.3 0.00 0.00 0.00 70 1013.1
20260506212215 11 315 8.0 11.3 0.00 0.00 0.00 69 1013.0
20260506211215 11 338 8.0 12.9 0.00 0.00 0.00 69 1012.9
20260506210215 11 338 3.2 4.8 0.00 0.00 0.00 68 1012.8
20260506205215 11 0 6.4 11.3 0.00 0.00 0.00 67 1012.8
20260506204215 12 315 3.2 6.4 0.00 0.00 0.00 66 1012.7
20260506203215 12 0 3.2 4.8 0.00 0.00 0.00 65 1012.6
20260506202216 12 0 1.6 4.8 0.00 0.00 0.00 65 1012.5
20260506201215 12 338 8.0 11.3 0.00 0.00 0.00 64 1012.4
20260506200216 12 338 11.3 19.3 0.00 0.00 0.00 64 1012.4
20260506195215 13 0 9.7 12.9 0.00 0.00 0.00 64 1012.2
20260506194215 13 338 8.0 12.9 0.00 0.00 0.00 65 1012.1
20260506193215 13 338 8.0 12.9 0.00 0.00 0.00 65 1012.0
20260506192216 13 315 3.2 6.4 0.00 0.00 0.00 65 1011.8
20260506191215 13 338 9.7 14.5 0.00 0.00 0.00 66 1011.8
20260506190216 13 338 8.0 11.3 0.00 0.00 0.00 65 1011.6
20260506185215 13 315 6.4 12.9 0.00 0.00 0.00 64 1011.5
20260506184217 13 338 3.2 6.4 0.00 0.00 0.00 63 1011.3
20260506183217 13 0 4.8 11.3 0.00 0.00 0.00 63 1011.3
20260506182217 13 315 4.8 6.4 0.00 0.00 0.00 65 1011.1
20260506181217 13 338 6.4 12.9 0.00 0.00 0.00 66 1011.0
20260506180217 13 293 6.4 9.7 0.00 0.00 0.00 68 1010.9
20260506175217 13 315 9.7 16.1 0.00 0.00 0.00 68 1010.9
20260506174217 13 293 11.3 16.1 0.00 0.00 0.00 68 1010.7
20260506173217 13 315 11.3 17.7 0.00 0.00 0.00 69 1010.6
20260506172217 13 315 11.3 16.1 0.00 0.00 0.00 70 1010.6
20260506171217 13 315 8.0 12.9 0.00 0.00 0.00 70 1010.4
20260506170217 13 293 12.9 17.7 0.00 0.00 0.00 69 1010.3
20260506165217 13 338 8.0 11.3 0.00 0.00 0.00 69 1010.3
20260506164217 13 315 11.3 17.7 0.00 0.00 0.00 69 1010.3
20260506163217 13 293 12.9 20.9 0.00 0.00 0.00 70 1010.2
20260506162217 13 293 12.9 22.5 0.00 0.00 0.00 70 1010.2
20260506161217 13 315 11.3 17.7 0.00 0.00 0.00 69 1010.2
20260506160217 14 315 16.1 22.5 0.00 0.00 0.00 68 1010.2
20260506155217 14 315 4.8 8.0 0.00 0.00 0.00 67 1010.1
20260506154217 14 293 14.5 20.9 0.00 0.00 0.00 67 1010.2
20260506153217 14 338 12.9 19.3 0.00 0.00 0.00 66 1010.1
20260506152217 14 315 19.3 32.2 0.00 0.00 0.00 66 1010.1
20260506151217 15 315 17.7 29.0 0.00 0.00 0.00 65 1010.1
20260506150217 15 315 16.1 27.4 0.00 0.00 0.00 66 1010.1
20260506145217 15 315 16.1 30.6 0.00 0.00 0.00 64 1010.0
20260506144217 15 315 12.9 22.5 0.00 0.00 0.00 64 1009.9
20260506143217 15 315 16.1 20.9 0.00 0.00 0.00 65 1010.0
20260506142217 15 315 9.7 17.7 0.00 0.00 0.00 66 1010.0
20260506141217 15 293 14.5 25.7 0.00 0.00 0.00 67 1010.1
20260506140217 16 315 25.7 33.8 0.00 0.00 0.00 65 1010.1
20260506135217 16 315 22.5 37.0 0.00 0.00 0.00 66 1010.1
20260506134216 16 315 17.7 33.8 0.00 0.00 0.00 67 1010.0
20260506133217 15 338 8.0 14.5 0.00 0.00 0.00 67 1010.0
20260506132217 15 315 17.7 27.4 0.00 0.00 0.00 67 1010.0
20260506131217 15 315 12.9 22.5 0.00 0.00 0.00 70 1010.0
20260506130217 14 315 9.7 16.1 0.00 0.00 0.00 71 1009.9
20260506125217 14 315 14.5 24.1 0.00 0.00 0.00 69 1009.9
20260506124216 15 315 17.7 25.7 0.00 0.00 0.00 69 1009.9
20260506123216 15 315 16.1 20.9 0.00 0.00 0.00 67 1009.8
20260506122216 15 315 19.3 27.4 0.00 0.00 0.00 66 1009.8
20260506121216 15 315 8.0 14.5 0.00 0.00 0.00 67 1009.7
20260506120216 15 315 11.3 22.5 0.00 0.00 0.00 68 1009.6
20260506115217 15 293 9.7 14.5 0.00 0.00 0.00 68 1009.6
20260506114216 14 293 11.3 16.1 0.00 0.00 0.00 67 1009.7
20260506113216 14 315 9.7 12.9 0.00 0.00 0.00 68 1009.7
20260506112217 14 315 14.5 19.3 0.00 0.00 0.00 69 1009.7
20260506111216 14 315 12.9 24.1 0.00 0.00 0.00 69 1009.7
20260506110216 15 315 19.3 27.4 0.00 0.00 0.00 68 1009.7
20260506105216 15 293 14.5 19.3 0.00 0.00 0.00 69 1009.6
20260506104216 15 315 9.7 14.5 0.00 0.00 0.00 70 1009.6